Zurück zum Katalog

CZ-6A DEB

AktivSSO
NORAD 55547·DEBRIS·🇨🇳 China

Gestartet Nov 11, 2022 von Taiyuan Satellite Launch Center

Loading…

Nächste Überflüge (nächste 24 Stunden)

TLE

AktuellSource: Space-Track

Epoche: Sep 12, 2026, 21:50 UTC

1 55547U 22151YV  26255.91036685  .00002619  00000-0  13848-2 0  9999
2 55547  98.9129 250.0469 0090995 137.3966 223.4311 14.12524568191149

Verfolge CZ-6A DEB in Echtzeit mit AllMySat

Download on the App Store